Regional Weather Roundup
Issued by NWS

Home | Current Version | Previous Version | Text Only | Print | Product List | Glossary On
Versions: 1 2 3 4 5 6 7 8 9 10 11 12 13 14 15 16 17 18 19 20 21 22 23 24 25 26 27 28 29 30 31 32 33 34 35 36 37 38 39 40 41 42 43 44 45 46 47 48 49 50
000
ASUS44 KFWD 230201
RWRTX
NORTH TEXAS HOURLY WEATHER ROUNDUP
NATIONAL WEATHER SERVICE FORT WORTH TX
900 PM CDT TUE AUG 22 2017

NOTE: "FAIR" INDICATES FEW OR NO CLOUDS BELOW 12,000 FEET WITH NO
SIGNIFICANT WEATHER AND/OR OBSTRUCTIONS TO VISIBILITY.

TXZ118-119-230300-
DALLAS/FORT WORTH METROPLEX

CITY           SKY/WX    TMP DP  RH WIND       PRES   REMARKS
DFW AIRPORT    MOCLDY    90  70  51 SE8       29.94S HX  95
DALLAS LOVE    PTCLDY    90  69  50 SE12      29.95S HX  94
FTW MEACHAM    CLEAR     92  68  45 SE8       29.95S HX  96
DAL-EXECUTIVE  CLEAR     89  67  47 SE10      29.95F HX  92
FTW-ALLIANCE   MOCLDY    89  67  47 SE8       29.95S HX  92
FTW-NAS-JRB    CLEAR     92  67  43 SE7       29.95S HX  95
ARLINGTON      CLEAR     88  71  57 E10       29.95F HX  94
GRAND PRAIRIE  CLEAR     90  66  45 SE7       29.97S HX  92
ADDISON        CLEAR     90  68  48 SE9G17    29.96  HX  93
MESQUITE         N/A     83  71  65 CALM      29.96F
LANCASTER      CLEAR     88  66  48 SE6       29.97S HX  90
$$

TXZ091>094-102>105-117-120-121-131>134-230300-
NORTH CENTRAL TEXAS

CITY           SKY/WX    TMP DP  RH WIND       PRES   REMARKS
SHRMAN/DENISON MOCLDY    86  71  59 SE8       29.98R HX  91
GAINESVILLE    CLOUDY    83  74  72 CALM      29.99R HX  90
BOWIE          PTCLDY    81  74  77 CALM      30.00R
BRIDGEPORT     PTCLDY    82  73  75 CALM      29.98S
DECATUR        PTCLDY    85  73  65 NE3         N/A  HX  91
DENTON         PTCLDY    88  70  55 E5        29.95F HX  93
MCKINNEY       PTCLDY    84  74  71 SE5       29.96F HX  91
BONHAM         PTCLDY    82  72  69 SE5       29.97S
ROCKWALL       CLEAR     85  72  63 SE5       29.97S HX  91
TERRELL        CLEAR     86  71  60 SE7       29.97S HX  91
WAXAHACHIE     CLEAR     85  68  56 E3        29.98S
CLEBURNE       CLEAR     88  66  48 S6        29.99R HX  90
GRANBURY       CLEAR     86  67  51 SE5       29.97S
$$

TXZ083>090-098>101-113>116-127>130-139>142-154-155-230300-
WESTERN NORTH TEXAS

CITY           SKY/WX    TMP DP  RH WIND       PRES   REMARKS
WICHITA FALLS  MOCLDY    79  70  74 W22G28    30.01R
WF-KICKAPOO    MOCLDY    81  69  67 NW14G22   30.04R
VERNON         CLOUDY    73  68  83 S14G21    30.06R
ABILENE        CLEAR     87  63  44 E5        30.02R
ABILENE-DYESS  MOCLDY    86  66  51 S3        30.02R
BRECKENRIDGE   PTCLDY    87  64  45 SE6       29.99R
CISCO          CLEAR     84  64  51 E6        30.02R
EASTLAND       CLEAR     83  65  54 SE3       30.01R
RANGER         CLEAR     82  66  58 SE5       30.02R
MINERAL WELLS  PTCLDY    86  67  52 SE5       29.96S
STEPHENVILLE   CLEAR     83  66  55 CALM      30.02R
COMANCHE       CLEAR     83  65  53 SE5       30.00S
BROWNWOOD      PTCLDY    84  63  48 E6        29.99S
COLEMAN        PTCLDY    87  58  37 S7        30.01S
$$

TXZ143>147-156>162-174-175-230300-
CENTRAL TEXAS

CITY           SKY/WX    TMP DP  RH WIND       PRES   REMARKS
WACO           PTCLDY    90  68  48 SE7       29.96R HX  94
WACO-TSTC      PTCLDY    90  66  45 SE3       29.96R HX  92
WACO-MCGREGOR  CLEAR     88  64  44 S6        29.97R
HILLSBORO      CLEAR     89  68  50 E8        29.97S HX  92
CORSICANA      CLEAR     87  72  60 E7        29.98R HX  93
MEXIA          CLEAR     86  65  49 CALM      29.97R
HEARNE         CLEAR     87  68  52 SE5       29.97R HX  90
CAMERON        CLEAR     89  67  49 S3        29.96R HX  91
TEMPLE         CLEAR     87  65  47 SE6       29.98R
KILLEEN        CLEAR     86  64  47 SE5       29.98R
KILLEEN-SKYLRK CLEAR     88  65  46 SE5       29.99R HX  90
FORT HOOD      CLEAR     88  63  42 SE3       29.96R
HAMILTON       CLEAR     87  64  44 SE8       30.01S
LAMPASAS       CLEAR     88  68  51 CALM      30.00R HX  91
$$

TXZ095>097-106>112-122>126-135>138-148>153-164>167-230300-
EAST TEXAS

CITY           SKY/WX    TMP DP  RH WIND       PRES   REMARKS
PARIS          CLEAR     83  75  77 S5        29.98S HX  90
SULPHUR SPRNGS CLEAR     85  73  66 CALM      29.99S HX  92
GILMER         CLEAR     81  76  85 CALM      29.98S
MINEOLA        CLEAR     79  75  89 SE3       29.97S
TYLER          CLEAR     82  75  79 S5        29.97F
LONGVIEW       CLEAR     83  76  79 S6        29.96S HX  91
MARSHALL         N/A     77  73  87 CALM      30.00R
ATHENS         CLEAR     81  72  74 SE3       29.96S
PALESTINE      CLEAR     85  70  60 E5        29.99R
JACKSONVILLE   CLEAR     84  71  63 CALM      30.01S
HENDERSON      CLEAR     79  74  86 CALM      29.99S
CENTER         CLEAR     83  81  93 CALM      30.00R HX  96
NACOGDOCHES    CLEAR     81  74  79 SE5       29.99R
LUFKIN         CLEAR     82  73  74 SE5       29.98R
$$

SUPPLEMENTAL OBSERVATIONS (NWS FORT WORTH AREA)

CITY           SKY/WX    TMP DP  RH WIND       PRES   REMARKS
$$

SUPPLEMENTAL OBSERVATIONS (NWS NORMAN AREA)

CITY           SKY/WX    TMP DP  RH WIND       PRES   REMARKS
GOODLETT         N/A     71  66  85 W7        30.05S
ODELL            N/A     72  70  94 NW13      30.07R
CROWELL          N/A     72  70  93 S12       30.05F
KNOX CITY        N/A     71  65  82 N16       30.10R
SEYMOUR        LGT RAIN  74  71  89 NW21      30.05F
$$

SUPPLEMENTAL OBSERVATIONS (NWS SAN ANGELO AREA)

CITY           SKY/WX    TMP DP  RH WIND       PRES   REMARKS
WEINERT          N/A     74  69  83 N16       30.09R
HASKELL          N/A     74  66  74 N23G33    30.08R
THROCKMORTON     N/A     80  70  70 N20G28    30.04R
STAMFORD         N/A     79  68  70 N28G35    30.06R
CLYDE            N/A     85  64  48 SE6       30.05R
$$

SUPPLEMENTAL OBSERVATIONS (NWS SHREVEPORT AREA)

CITY           SKY/WX    TMP DP  RH WIND       PRES   REMARKS
$$

SUPPLEMENTAL OBSERVATIONS ARE A COLLECTION OF AUTOMATED INSTRUMENTS
THAT ARE MAINTAINED BY A VARIETY OF FEDERAL AND STATE AGENCIES.
CERTAIN ELEMENTS...SUCH AS HUMIDITY VALUES AND SUSTAINED WIND
SPEEDS...MAY BE APPROXIMATED.





USA.gov is the U.S. government's official web portal to all federal, state and local government web resources and services.